WD1L Weather Reports


Display with metric or nautical units.
time (UTC)temp
F
wind
direction
speed
MPH
gust
MPH
rain 1hr
in
rain 24hr
in
rain mn
in
humidity
%
barometer
mb
20260505072805 49 188 0.0 0.0 0.00 0.00 0.00 87 1008.2
20260505072305 49 188 0.0 0.0 0.00 0.00 0.00 87 1008.2
20260505071805 49 188 0.0 0.0 0.00 0.00 0.00 87 1008.2
20260505071304 49 188 0.0 0.0 0.00 0.00 0.00 87 1008.2
20260505070305 49 188 0.0 0.0 0.00 0.00 0.00 86 1008.2
20260505065805 50 188 0.0 0.0 0.00 0.00 0.00 86 1008.2
20260505065305 50 188 0.0 0.0 0.00 0.00 0.00 86 1008.2
20260505064804 50 188 0.0 0.0 0.00 0.00 0.00 86 1008.2
20260505064306 50 188 0.0 0.0 0.00 0.00 0.00 86 1008.3
20260505063805 50 188 0.0 0.0 0.00 0.00 0.00 86 1008.3
20260505063305 50 188 0.0 0.0 0.00 0.00 0.00 86 1008.3
20260505062805 50 188 0.0 0.0 0.00 0.00 0.00 86 1008.3
20260505061805 51 188 0.0 0.0 0.00 0.00 0.00 85 1008.3
20260505060805 51 188 0.0 0.0 0.00 0.00 0.00 85 1008.3
20260505060305 51 188 0.0 0.0 0.00 0.00 0.00 85 1008.3
20260505055805 51 188 0.0 0.0 0.00 0.00 0.00 85 1008.3
20260505055305 51 188 0.0 0.0 0.00 0.00 0.00 85 1008.3
20260505054805 51 188 0.0 0.0 0.00 0.00 0.00 85 1008.3
20260505054305 51 188 0.0 0.0 0.00 0.00 0.00 85 1008.3
20260505053804 51 188 0.0 0.0 0.00 0.00 0.00 84 1008.3
20260505053305 51 188 0.0 0.0 0.00 0.00 0.00 84 1008.3
20260505052805 51 188 0.0 0.0 0.00 0.00 0.00 84 1008.3
20260505052305 51 188 0.0 0.0 0.00 0.00 0.00 84 1008.3
20260505051304 52 188 0.0 0.0 0.00 0.00 0.00 84 1008.5
20260505050805 52 188 0.0 0.0 0.00 0.00 0.00 84 1008.5
20260505041305 52 186 0.0 0.0 0.00 0.00 0.00 82 1008.7
20260505040805 52 186 0.0 0.0 0.00 0.00 0.00 82 1008.7
20260505040305 52 186 0.0 0.0 0.00 0.00 0.00 81 1008.7
20260505035805 52 186 0.0 0.0 0.00 0.00 0.00 81 1008.5
20260505035304 53 186 0.0 0.0 0.00 0.00 0.00 81 1008.5
20260505034804 53 186 0.0 0.0 0.00 0.00 0.00 81 1008.5
20260505034305 53 186 0.0 0.0 0.00 0.00 0.00 80 1008.6
20260505033805 53 186 0.0 0.0 0.00 0.00 0.00 80 1008.6
20260505033304 53 186 0.0 0.0 0.00 0.00 0.00 80 1008.6
20260505032305 53 186 0.0 0.0 0.00 0.00 0.00 79 1008.5
20260505031805 53 217 0.0 0.0 0.00 0.00 0.00 79 1008.5
20260505030805 53 217 0.0 0.0 0.00 0.00 0.00 78 1008.7
20260505025805 54 217 0.0 0.0 0.00 0.00 0.00 78 1008.7
20260505025305 54 217 0.0 0.0 0.00 0.00 0.00 78 1008.7
20260505024804 54 217 0.0 0.0 0.00 0.00 0.00 77 1008.7
20260505024306 54 217 0.0 0.0 0.00 0.00 0.00 77 1008.7
20260505023805 54 217 0.0 0.0 0.00 0.00 0.00 76 1008.7
20260505023305 55 217 0.0 0.0 0.00 0.00 0.00 76 1008.7
20260505022805 55 217 0.0 0.0 0.00 0.00 0.00 76 1008.7
20260505022305 55 217 0.0 0.0 0.00 0.00 0.00 75 1008.7
20260505021305 55 217 0.0 0.0 0.00 0.00 0.00 75 1008.7
20260505020805 55 217 0.0 0.0 0.00 0.00 0.00 74 1008.7
20260505020306 55 217 0.0 0.0 0.00 0.00 0.00 74 1008.7
20260505015806 56 218 0.0 0.0 0.00 0.00 0.00 74 1008.7
20260505015305 56 219 0.0 0.0 0.00 0.00 0.00 73 1008.7
20260505014805 56 219 0.0 0.0 0.00 0.00 0.00 73 1008.7
20260505014305 56 217 0.0 0.0 0.00 0.00 0.00 73 1008.4
20260505013805 56 218 0.0 0.0 0.00 0.00 0.00 73 1008.4
20260505013305 56 218 0.0 0.0 0.00 0.00 0.00 72 1008.4
20260505012805 56 218 0.0 0.0 0.00 0.00 0.00 72 1008.2
20260505012305 56 218 0.0 0.0 0.00 0.00 0.00 71 1008.2
20260505011304 57 217 0.0 0.0 0.00 0.00 0.00 70 1008.2
20260505010305 57 212 0.0 0.0 0.00 0.00 0.00 69 1008.2
20260505005804 57 208 0.0 0.0 0.00 0.00 0.00 69 1007.7
20260505005305 57 207 0.0 0.0 0.00 0.00 0.00 68 1007.7
20260505004805 57 207 0.0 0.0 0.00 0.00 0.00 68 1007.7
20260505004305 57 207 0.0 0.0 0.00 0.00 0.00 67 1007.5
20260505003305 58 207 0.0 0.0 0.00 0.00 0.00 65 1007.5
20260505002805 58 207 0.0 0.0 0.00 0.00 0.00 64 1007.2
20260505002305 58 209 0.0 0.0 0.00 0.00 0.00 64 1007.2
20260505001805 58 211 0.0 0.0 0.00 0.00 0.00 62 1007.2
20260505001305 58 212 0.0 0.0 0.00 0.00 0.00 62 1007.0
20260504234804 60 191 0.0 0.0 0.00 0.00 0.00 59 1006.7
20260504234305 60 190 0.0 0.0 0.00 0.00 0.00 59 1006.7
20260504233805 60 200 0.0 0.0 0.00 0.00 0.00 58 1006.7
20260504233305 60 200 0.0 0.0 0.00 0.00 0.00 58 1006.7
20260504232805 61 203 0.0 0.0 0.00 0.00 0.00 57 1006.3
20260504232305 61 201 0.0 0.0 0.00 0.00 0.00 56 1006.3
20260504230804 62 230 0.0 0.0 0.00 0.00 0.00 54 1006.1
20260504224805 63 203 0.0 4.0 0.00 0.00 0.00 52 1005.8
20260504224305 64 210 0.0 3.0 0.00 0.00 0.00 51 1005.7
20260504223805 64 186 0.0 3.0 0.00 0.00 0.00 51 1005.7
20260504223305 64 206 0.0 5.0 0.00 0.00 0.00 51 1005.7
20260504222805 64 205 0.0 5.0 0.00 0.00 0.00 51 1005.6
20260504222305 64 199 0.0 5.0 0.00 0.00 0.00 51 1005.6
20260504221805 65 157 0.0 5.0 0.00 0.00 0.00 51 1005.6
20260504221306 65 198 4.0 4.0 0.00 0.00 0.00 52 1005.6
20260504220805 65 204 0.0 1.0 0.00 0.00 0.00 51 1005.6
20260504215305 66 207 1.0 7.0 0.00 0.00 0.00 49 1005.5
20260504214805 66 233 0.0 7.0 0.00 0.00 0.00 50 1005.5
20260504213805 67 198 0.0 6.0 0.00 0.00 0.00 48 1005.3
20260504213305 67 188 0.0 3.0 0.00 0.00 0.00 48 1005.3
20260504212804 67 249 0.0 3.0 0.00 0.00 0.00 48 1005.4
20260504212305 67 198 0.0 3.0 0.00 0.00 0.00 48 1005.4
20260504211805 66 197 0.0 7.0 0.00 0.00 0.00 47 1005.4
20260504211305 67 214 0.0 7.0 0.00 0.00 0.00 47 1005.2
20260504205805 68 194 0.0 5.0 0.00 0.00 0.00 44 1005.1
20260504205305 68 203 0.0 5.0 0.00 0.00 0.00 44 1005.1
20260504204804 68 194 0.0 5.0 0.00 0.00 0.00 43 1005.1
20260504204304 68 233 0.0 5.0 0.00 0.00 0.00 43 1005.1
20260504203805 68 216 0.0 3.0 0.00 0.00 0.00 44 1005.1
20260504203305 69 198 0.0 3.0 0.00 0.00 0.00 42 1005.1
20260504202805 69 198 0.0 3.0 0.00 0.00 0.00 43 1005.1
20260504202305 69 198 0.0 3.0 0.00 0.00 0.00 41 1005.1
20260504201805 69 202 0.0 5.0 0.00 0.00 0.00 41 1005.1
20260504201305 69 229 0.0 6.0 0.00 0.00 0.00 40 1005.1
20260504200804 70 202 0.0 6.0 0.00 0.00 0.00 40 1005.1
20260504200305 70 164 0.0 5.0 0.00 0.00 0.00 38 1005.1
20260504195805 70 230 0.0 6.0 0.00 0.00 0.00 38 1005.1
20260504194805 71 207 0.0 11.0 0.00 0.00 0.00 38 1005.1
20260504194305 71 217 2.0 11.0 0.00 0.00 0.00 34 1005.1
20260504193805 71 271 0.0 10.0 0.00 0.00 0.00 37 1005.1
20260504193305 71 218 0.0 10.0 0.00 0.00 0.00 35 1005.1
20260504192805 71 229 0.0 12.0 0.00 0.00 0.00 34 1005.0
20260504192305 71 239 0.0 12.0 0.00 0.00 0.00 34 1005.0
20260504191805 72 229 3.0 9.0 0.00 0.00 0.00 34 1005.0
20260504190806 72 231 0.0 6.0 0.00 0.00 0.00 32 1005.1
20260504190304 72 231 5.0 7.0 0.00 0.00 0.00 34 1005.1
20260504185305 71 213 0.0 13.0 0.00 0.00 0.00 33 1005.2
20260504184805 71 260 0.0 13.0 0.00 0.00 0.00 34 1005.2
20260504184305 72 215 3.0 5.0 0.00 0.00 0.00 33 1005.3
20260504183805 71 214 0.0 7.0 0.00 0.00 0.00 33 1005.3
20260504183305 71 229 4.0 7.0 0.00 0.00 0.00 34 1005.3
20260504182804 71 233 3.0 12.0 0.00 0.00 0.00 35 1005.4
20260504182304 71 241 0.0 12.0 0.00 0.00 0.00 34 1005.4
20260504180805 71 176 0.0 9.0 0.00 0.00 0.00 34 1005.6
20260504180305 72 236 2.0 9.0 0.00 0.00 0.00 34 1005.6
20260504175805 72 242 0.0 11.0 0.00 0.00 0.00 35 1005.5
20260504174305 71 218 0.0 10.0 0.00 0.00 0.00 33 1005.5
20260504173805 71 216 0.0 12.0 0.00 0.00 0.00 34 1005.5
20260504173305 71 260 3.0 12.0 0.00 0.00 0.00 32 1005.5
20260504172805 71 255 2.0 12.0 0.00 0.00 0.00 32 1005.5
20260504172305 71 212 6.0 12.0 0.00 0.00 0.00 33 1005.5
20260504171805 71 234 4.0 14.0 0.00 0.00 0.00 33 1005.5
20260504171306 70 252 5.0 14.0 0.00 0.00 0.00 34 1005.6
20260504170804 71 233 2.0 12.0 0.00 0.00 0.00 32 1005.6
20260504170305 71 210 0.0 12.0 0.00 0.00 0.00 34 1005.6
20260504160321 69 207 7.0 7.0 0.00 0.00 0.00 37 1006.6
20260504150821 67 210 4.0 9.0 0.00 0.00 0.00 38 1006.9
20260504141322 65 219 0.0 7.0 0.00 0.00 0.00 44 1007.7
20260504140821 64 239 6.0 6.0 0.00 0.00 0.00 43 1007.7
20260504140321 64 210 0.0 4.0 0.00 0.00 0.00 45 1007.7
20260504130821 58 235 0.0 5.0 0.00 0.00 0.00 52 1008.2
20260504130321 58 231 0.0 4.0 0.00 0.00 0.00 53 1008.2
20260504110323 45 219 0.0 0.0 0.00 0.00 0.00 70 1008.7
20260504081821 43 207 0.0 0.0 0.00 0.00 0.00 76 1008.2
20260504081321 43 207 0.0 0.0 0.00 0.00 0.00 75 1008.2
20260504080821 43 207 0.0 0.0 0.00 0.00 0.00 76 1008.2